LA5TUA Weather Reports


time (UTC)temp
C
wind
direction
speed
KPH
gust
KPH
rain 1hr
cm
rain 24hr
cm
rain mn
cm
humidity
%
barometer
mb
20260502213457 9 156 4.8 9.7 0.00 0.10 0.10 93 1009.1
20260502212431 9 186 4.8 12.9 0.00 0.10 0.10 93 1009.1
20260502211404 9 152 3.2 11.3 0.00 0.10 0.10 93 1009.1
20260502210333 9 149 3.2 6.4 0.00 0.10 0.10 93 1009.1
20260502205305 9 105 1.6 4.8 0.00 0.10 0.10 93 1009.1
20260502203223 9 142 1.6 4.8 0.00 0.10 0.10 93 1009.1
20260502202157 9 95 1.6 4.8 0.00 0.10 0.10 93 1009.1
20260502201133 9 103 1.6 4.8 0.00 0.10 0.10 93 1009.1
20260502195033 9 107 3.2 6.4 0.00 0.10 0.10 93 1009.5
20260502194008 9 137 1.6 8.0 0.00 0.10 0.10 92 1009.5
20260502192947 9 160 8.0 9.7 0.00 0.10 0.10 92 1009.5
20260502191914 9 166 8.0 12.9 0.00 0.10 0.10 92 1009.5
20260502190845 9 158 3.2 16.1 0.00 0.08 0.08 92 1009.5
20260502185819 10 171 14.5 17.7 0.08 0.08 0.08 91 1009.5
20260502184757 10 181 9.7 12.9 0.10 0.08 0.08 91 1009.8
20260502183724 10 209 3.2 9.7 0.00 0.08 0.08 90 1009.8
20260502170341 10 134 0.0 4.8 0.00 0.05 0.05 90 1009.8
20260502164246 10 92 3.2 4.8 0.00 0.05 0.05 90 1009.8
20260502163221 10 155 6.4 9.7 0.00 0.05 0.05 90 1009.8
20260502161136 10 186 1.6 8.0 0.00 0.05 0.05 90 1010.2
20260502150908 11 163 19.3 22.5 0.00 0.00 0.00 85 1010.2
20260502130339 12 179 9.7 27.4 0.00 0.00 0.00 78 1010.8
20260502121126 13 171 17.7 29.0 0.00 0.00 0.00 67 1011.2
20260502114018 13 161 17.7 30.6 0.00 0.00 0.00 61 1011.5
20260502112951 14 166 25.7 32.2 0.00 0.00 0.00 60 1011.5
20260502111841 15 134 14.5 33.8 0.00 0.00 0.00 58 1011.5
20260502110841 14 166 24.1 27.4 0.00 0.00 0.00 54 1011.9
20260502105813 13 176 11.3 27.4 0.00 0.00 0.00 52 1011.9
20260502104743 14 155 12.9 27.4 0.00 0.00 0.00 57 1011.9
20260502103718 13 134 17.7 22.5 0.00 0.00 0.00 59 1012.2
20260502102651 13 186 12.9 25.7 0.00 0.00 0.00 58 1012.2
20260502101629 13 171 12.9 22.5 0.00 0.00 0.00 59 1012.5
20260502100601 13 118 4.8 27.4 0.00 0.00 0.00 60 1012.5
20260502091350 13 153 19.3 27.4 0.00 0.00 0.00 59 1012.5
20260502090319 13 157 14.5 24.1 0.00 0.00 0.00 59 1012.5
20260502070841 12 194 8.0 11.3 0.00 0.00 0.00 68 1013.9
20260502065813 11 221 6.4 11.3 0.00 0.00 0.00 71 1013.9
20260502064746 11 187 3.2 12.9 0.00 0.00 0.00 73 1013.9
20260502063724 10 202 6.4 16.1 0.00 0.00 0.00 75 1013.9
20260502061644 10 164 8.0 16.1 0.00 0.00 0.00 76 1014.2
20260502060620 10 175 3.2 16.1 0.00 0.00 0.00 76 1014.2
20260502055555 9 223 9.7 16.1 0.00 0.00 0.00 79 1014.2
20260502054531 9 213 8.0 14.5 0.00 0.00 0.00 79 1014.2
20260502053458 9 204 8.0 16.1 0.00 0.00 0.00 80 1014.6
20260502052439 8 155 12.9 16.1 0.00 0.00 0.00 80 1014.6
20260502051413 8 209 4.8 19.3 0.00 0.00 0.00 80 1014.6
20260502050346 8 185 8.0 20.9 0.00 0.00 0.00 81 1014.6
20260502045318 8 162 12.9 17.7 0.00 0.00 0.00 80 1014.6
20260502044253 8 127 11.3 19.3 0.00 0.00 0.00 79 1014.6
20260502043223 9 182 11.3 16.1 0.00 0.00 0.00 75 1014.6
20260502042158 9 169 19.3 19.3 0.00 0.00 0.00 71 1014.9
20260502041131 9 188 8.0 17.7 0.00 0.00 0.00 71 1014.9
20260502040109 8 171 8.0 16.1 0.00 0.00 0.00 71 1014.9
20260502035055 8 128 11.3 16.1 0.00 0.00 0.00 71 1014.9
20260502034039 8 189 4.8 14.5 0.00 0.00 0.00 72 1014.9
20260502033011 8 199 6.4 14.5 0.00 0.00 0.00 73 1015.2
20260502031950 8 229 8.0 9.7 0.00 0.00 0.00 73 1015.2
20260502030925 9 175 9.7 16.1 0.00 0.00 0.00 72 1015.6
20260502025904 9 179 4.8 17.7 0.00 0.00 0.00 72 1015.6
20260502024841 9 184 8.0 12.9 0.00 0.00 0.00 70 1015.6
20260502023809 10 216 8.0 14.5 0.00 0.00 0.00 70 1015.9
20260502022741 10 193 4.8 14.5 0.00 0.00 0.00 70 1015.9
20260502021714 10 194 6.4 16.1 0.00 0.00 0.00 70 1015.9
20260502020647 10 173 19.3 19.3 0.00 0.00 0.00 69 1015.9
20260502015609 10 170 11.3 14.5 0.00 0.00 0.00 70 1016.3
20260502013529 10 180 6.4 14.5 0.00 0.00 0.00 74 1016.3
20260502012456 10 188 9.7 16.1 0.00 0.00 0.00 70 1016.6
20260502011429 10 231 11.3 17.7 0.00 0.00 0.00 69 1016.6
20260502010404 10 190 11.3 27.4 0.00 0.00 0.00 68 1016.6
20260502005333 11 187 9.7 24.1 0.00 0.00 0.00 67 1016.6
20260502003245 11 217 8.0 17.7 0.00 0.00 0.00 63 1016.9
20260502002217 11 232 6.4 19.3 0.00 0.00 0.00 62 1016.9
20260502000138 12 255 14.5 19.3 0.00 0.00 0.00 61 1016.9
20260501235109 12 190 9.7 20.9 0.00 0.00 0.00 61 1016.9
20260501234047 12 214 9.7 22.5 0.00 0.00 0.00 62 1016.9
20260501232945 12 229 6.4 24.1 0.00 0.00 0.00 62 1017.3
20260501231917 12 257 19.3 22.5 0.00 0.00 0.00 63 1017.3
20260501230851 11 233 11.3 14.5 0.00 0.00 0.00 66 1017.3
20260501225831 11 220 14.5 19.3 0.00 0.00 0.00 70 1017.6
20260501224810 11 217 9.7 16.1 0.00 0.00 0.00 70 1017.6
20260501223747 11 196 6.4 14.5 0.00 0.00 0.00 72 1017.6
20260501221701 11 234 6.4 17.7 0.00 0.00 0.00 70 1017.6
20260501220635 11 197 6.4 17.7 0.00 0.00 0.00 70 1017.6
20260501215606 11 218 9.7 16.1 0.00 0.00 0.00 69 1017.6